Location: Brivio
(45.7333°N, 9.4500°E)
Time: 00:08:06
(UTC+00:00)

NOSS 3-2 (C) - Pass Details

Date: 18 October 2019
Orbit: 819 x 1394 km, 63.4° (Epoch: 19 November)

Event Time Altitude Azimuth Distance (km) Brightness Sun altitude
Rises 18:21:27 0° 189° (S) 3,373 6.4 -19.8°
Reaches altitude 10° 18:23:58 10° 180° (S) 2,480 5.6 -20.3°
Enters shadow 18:28:35 36° 127° (SE) 1,398 3.9 -21.1°
